Regional Weather Roundup
Issued by NWS

Home | Current Version | Previous Version | Text Only | Print | Product List | Glossary On
Versions: 1 2 3 4 5 6 7 8 9 10 11 12 13 14 15 16 17 18 19 20 21 22 23 24 25 26 27 28 29 30 31 32 33 34 35 36 37 38 39 40 41 42 43 44 45 46 47 48 49 50
000
ASUS43 KMPX 231710
RWRMN
WEATHER ROUNDUP FOR MINNESOTA
NATIONAL WEATHER SERVICE TWIN CITIES/CHANHASSEN MN
1200 PM CDT SAT AUG 23 2014


NOTE: "FAIR" INDICATES FEW OR NO CLOUDS BELOW 12,000 FEET WITH NO
SIGNIFICANT WEATHER AND/OR OBSTRUCTIONS TO VISIBILITY. N/A MEANS
CURRENT SKY AND/OR WEATHER CONDITIONS ARE NOT AVAILABLE.

MNZ060>063-068>070-231800-
   Twin Cities Metro

CITY           SKY/WX    TMP DP  RH WIND       PRES   REMARKS
TWIN CITIES    LGT RAIN  70  67  90 E13       29.93F
ST PAUL        CLOUDY    70  67  90 E6        29.94F
CRYSTAL        CLOUDY    73  66  78 NE8       29.93F
BLAINE         CLOUDY    72  70  94 E13       29.95F
LAKEVILLE      LGT RAIN  68  66  94 E10G16    29.92F
EDEN PRAIRIE   CLOUDY    71  67  87 E12       29.91F
SOUTH ST PAUL  LGT RAIN  71  67  88 E6        29.93F
LAKE ELMO      CLOUDY    70  68  94 NE12      29.96F
$$
MNZ001>005-007-008-013>017-022>024-027-028-231800-
   Northwest Minnesota

CITY           SKY/WX    TMP DP  RH WIND       PRES   REMARKS
BEMIDJI        CLOUDY    68  65  90 E6        30.05S
HALLOCK        CLOUDY    66  63  88 NE7       30.06S
ROSEAU         CLOUDY    73  66  78 E13       30.06S
WARROAD        CLOUDY    72  66  83 NE13      30.08S
THIEF RVR FALL CLOUDY    70  66  88 NE9       30.04S
CROOKSTON      CLOUDY    70  70 100 E8        30.02F
FOSSTON        CLOUDY    72  68  88 CALM      30.03F
DETROIT LAKES  LGT RAIN  68  64  88 E6        30.03S
MOORHEAD       LGT RAIN  72  72 100 E8        29.99F
PARK RAPIDS    CLOUDY    70  63  78 SE9       30.03F
MAHNOMEN       CLOUDY    71  66  85 E7        30.02S
$$
MNZ006-009>011-018-025>026-231800-
   North Central Minnesota

CITY           SKY/WX    TMP DP  RH WIND       PRES   REMARKS
BAUDETTE       CLOUDY    70  65  84 E8        30.08S
FLAG ISLAND    PTSUNNY   73  64  73 E8        30.07S
INTL FALLS     CLOUDY    73  62  68 E9        30.08F
WASKISH        CLOUDY    72  66  83 E3        30.06F
BIG FORK       CLOUDY    70  64  83 E6        30.08S
LONGVILLE      CLOUDY    68  64  88 E3        30.04S
GRAND RAPIDS   CLOUDY    70  63  78 E6        30.05F
CRANE LAKE     CLOUDY    72  63  73 CALM      30.10F
ORR            PTSUNNY   72  61  68 CALM      30.06F
COOK           PTSUNNY   72  63  73 E3        30.08F
WALKER         CLOUDY    68  64  86 E6        30.04F
$$
MNZ012-019>021-037-231800-
   Northeast Minnesota

CITY           SKY/WX    TMP DP  RH WIND       PRES   REMARKS
DULUTH         DRIZZLE   65  61  87 NE10      30.05F FOG
ELY            CLOUDY    72  61  68 E5        30.09F
HIBBING        CLOUDY    71  63  75 E12       30.07F
EVELETH        CLOUDY    68  63  83 CALM      30.08F
DULUTH HARBOR  CLOUDY    64  61  88 NE16      30.05F
TWO HARBORS    CLOUDY    64  59  82 NE9G16    30.05F
SILVER BAY     PTSUNNY   63  63 100 NE10G17   30.07F
GRAND MARAIS     N/A     64  60  87 NE8       30.08F
G MARAIS ARPRT CLOUDY    66  59  77 NE6       30.14S
$$
MNZ029>031-032-039>041-046>048-054>057-064-231800-
   West Central Minnesota

CITY           SKY/WX    TMP DP  RH WIND       PRES   REMARKS
FERGUS FALLS   DRIZZLE   70  66  88 E7        29.97F
WHEATON        CLOUDY    68  64  88 E8        29.98S
MORRIS         CLOUDY    70  66  88 E14       29.95S
ALEXANDRIA     CLOUDY    66  64  93 E14       29.99F
ELBOW LAKE     CLOUDY    68  65  89 E12       29.97S
WADENA         DRIZZLE   66  63  88 NE8       30.01F
GLENWOOD       LGT RAIN  66  64  94 E10       29.98F
APPLETON       CLOUDY    72  66  83 E12       29.94S HAZE
BENSON         CLOUDY    68  66  94 SE8       29.96S
ORTONVILLE     DRIZZLE   70  64  83 E10       29.94F
MADISON        DRIZZLE   72  70  94 E9        29.94F
WILLMAR        CLOUDY    70  66  88 E12       29.96F
$$
MNZ033>034-036-042>043-049>051-058-059-231800-
   Central Minnesota

CITY           SKY/WX    TMP DP  RH WIND       PRES   REMARKS
ST CLOUD       CLOUDY    71  64  78 VRB7      29.96F
SAUK CENTRE    CLOUDY    66  64  92 E10       29.98F
PAYNESVILLE    CLOUDY    64  63  94 NE7       29.97S FOG
AITKIN         CLOUDY    72  64  78 NE9       30.01F
PINE RIVER     CLOUDY    66  63  88 E7        30.06F
BRAINERD       CLOUDY    66  63  90 NE9       30.02F
STAPLES        LGT RAIN  66  63  88 NE7       30.01F
LONG PRAIRIE   CLOUDY    64  63  94 NE5       30.00F
LITTLE FALLS   CLOUDY    68  63  83 E6        29.99F
LITCHFIELD     CLOUDY    70  70 100 NE6       29.97R
BUFFALO        CLOUDY    68  65  90 NE12G18   29.96S
MAPLE LAKE     CLOUDY    71  67  89 NE12      29.95F
$$
MNZ037-044-045-052-053-231800-
   East Central Minnesota

CITY           SKY/WX    TMP DP  RH WIND       PRES   REMARKS
PRINCETON      CLOUDY    70  64  83 NE6       29.98F
MORA           CLOUDY    68  63  83 E6        30.01F
CAMBRIDGE      CLOUDY    70  61  73 NE3       29.96F
RUSH CITY      CLOUDY    70  66  86 NE6       29.98F
MOOSE LAKE     CLOUDY    64  61  88 NE7       30.01F
HINCKLEY       CLOUDY    70  66  88 E8        30.00F
CLOQUET        CLOUDY    64  63  94 E7        30.05F
MCGREGOR       CLOUDY    68  63  83 E9        30.04S
$$
MNZ071>073-080-081-089-090-097-098-231800-
   Southwest Minnesota

CITY           SKY/WX    TMP DP  RH WIND       PRES   REMARKS
MONTEVIDEO     CLOUDY    70  70 100 E9        29.94F FOG
GRANITE FALLS  CLOUDY    70  69  97 NE8       29.94S FOG
CANBY          CLOUDY    69  68  96 E12       29.94F FOG
MARSHALL       CLOUDY    72  66  83 E9        29.92S
REDWOOD FALLS  CLOUDY    73  69  87 E9        29.90F
OLIVIA         CLOUDY    70  66  88 E8        29.93F FOG
PIPESTONE      CLOUDY    73  68  83 SE12      29.92F
WINDOM         CLOUDY    75  68  78 E6        29.91F
WORTHINGTON      N/A     77  18  10 SE13      29.92F
JACKSON        CLOUDY    77  68  73 SE7       29.91F
TRACY          CLOUDY    74  69  86 E8        29.92F
SLAYTON        CLOUDY    73  70  92 CALM      29.92F
$$
MNZ065>067-074>077-082>085-091>093-231800-
   South Central Minnesota

CITY           SKY/WX    TMP DP  RH WIND       PRES   REMARKS
MANKATO        CLOUDY    72  66  83 SE10      29.92S
NEW ULM        CLOUDY    73  72  94 CALM      29.94R
FAIRMONT       CLOUDY    64  64 100 SE12      29.91S
GLENCOE        CLOUDY    72  67  85 E5        29.95R HAZE
FARIBAULT      CLOUDY    73  68  83 CALM      29.94R
OWATONNA       CLOUDY    72  68  88 CALM      29.94R
WASECA         CLOUDY    72  66  83 E9        29.94F
ALBERT LEA     CLOUDY    72  72 100 E7        29.92S
$$
MNZ078>079-086>088-094>096-231800-
   Southeast Minnesota

CITY           SKY/WX    TMP DP  RH WIND       PRES   REMARKS
ROCHESTER      LGT RAIN  70  68  93 S7        29.95F
RED WING       LGT RAIN  72  68  88 E7        29.93F
STANTON        LGT RAIN  70  68  93 NE9       29.90F
DODGE CENTER   LGT RAIN  70  68  94 E12G21    29.88F
WINONA         CLOUDY    73  72  94 SW5       29.98S
AUSTIN         CLOUDY    72  70  94 SE3       29.92R
PRESTON        LGT RAIN  69  69 100 E13       29.96F
$$
ABBREVIATIONS USED IN REMARKS
   TC - TEMPERATURES IN CELSIUS
  WCI - WIND CHILL INDEX
   HX - HEAT INDEX
  VSB - VISIBILITY
$$



USA.gov is the U.S. government's official web portal to all federal, state and local government web resources and services.